Location: Ajisawe
(8.4333°N, 4.3833°E)
Time: 23:19:03
(UTC+00:00)

A-11 Canister half - Pass Details

Date: 22 April 2021
Orbit: 1514 x 1685 km, 47.2° (Epoch: 15 May)

Event Time Altitude Azimuth Distance (km) Brightness Sun altitude
Rises 02:04:56 0° 343° (NNW) 4,838 11.7 -48.7°
Reaches altitude 10° 02:09:46 10° 3° (N) 3,883 11.3 -47.7°
Maximum altitude 02:15:35 17° 39° (NE) 3,402 11.2 -46.4°
Drops below altitude 10° 02:21:26 10° 75° (ENE) 3,936 11.7 -45.1°
Sets 02:26:19 0° 95° (E) 4,933 12.3 -44.0°
